This is the latest recevied weather packets stored in our database for station/object KR0L-13. If no packets are shown the sender has not sent any weather packets the latest 10 day(s).
| Time | Temp. | Humidity | Pressure | Rain* | Wind** | Luminosity | Snow |
|---|---|---|---|---|---|---|---|
| 1788608121 | 27.22° C | 66% | 1013.8 hPa | 0 mm | - | - | - |
| 1788607521 | 27.22° C | 65% | 1013.8 hPa | 0 mm | - | - | - |
| 1788606921 | 27.22° C | 65% | 1013.9 hPa | 0 mm | - | - | - |
| 1788606321 | 27.22° C | 65% | 1013.8 hPa | 0 mm | - | - | - |
| 1788605721 | 27.22° C | 66% | 1014.1 hPa | 0 mm | - | - | - |
| 1788605121 | 27.22° C | 66% | 1014.1 hPa | 0 mm | - | - | - |
| 1788604521 | 27.22° C | 66% | 1014.1 hPa | 0 mm | - | - | - |
| 1788603921 | 26.67° C | 67% | 1014.2 hPa | 0 mm | - | - | - |
| 1788603321 | 26.67° C | 68% | 1014.3 hPa | 0 mm | - | - | - |
| 1788602721 | 26.11° C | 70% | 1014.1 hPa | 0 mm | - | - | - |
| 1788602121 | 25.56° C | 72% | 1014 hPa | 0 mm | - | - | - |
| 1788601521 | 25° C | 74% | 1014 hPa | 0 mm | - | - | - |
| 1788600921 | 25° C | 74% | 1014.2 hPa | 0 mm | - | - | - |
| 1788600321 | 25° C | 74% | 1014.2 hPa | 0 mm | - | - | - |
| 1788599721 | 25° C | 73% | 1014.3 hPa | 0 mm | - | - | - |
| 1788599121 | 25° C | 73% | 1014.2 hPa | 0 mm | - | - | - |
| 1788598521 | 25.56° C | 72% | 1014.2 hPa | 0 mm | - | - | - |
| 1788597921 | 25.56° C | 73% | 1014.2 hPa | 0 mm | - | - | - |
| 1788597321 | 25.56° C | 73% | 1014.1 hPa | 0 mm | - | - | - |
| 1788596721 | 25.56° C | 73% | 1014.1 hPa | 0 mm | - | - | - |
| 1788596121 | 25.56° C | 72% | 1014.2 hPa | 0 mm | - | - | - |
| 1788595521 | 25.56° C | 71% | 1014.2 hPa | 0 mm | - | - | - |
| 1788594921 | 26.11° C | 70% | 1014.3 hPa | 0 mm | - | - | - |
| 1788594321 | 26.11° C | 69% | 1014.3 hPa | 0 mm | - | - | - |
| 1788593721 | 26.67° C | 69% | 1014.3 hPa | 0 mm | - | - | - |
* Rain latest hour (hover to see other rain measurements)
** Current wind speed in m/s (hover to see current wind gust speed)